2016-10-22 00:03:16 r, 20.56m,0000000001Hz,0000908138c,0000001.971s, 014.8C,00002191
2016-10-22 00:13:16 r, 20.52m,0000000001Hz,0000869226c,0000001.886s, 014.8C,00002191
2016-10-22 00:23:16 r, 20.47m,0000000000Hz,0000835239c,0000001.813s, 014.5C,00002191
2016-10-22 00:33:17 r, 20.44m,0000000000Hz,0000809131c,0000001.756s, 014.1C,00002191
2016-10-22 00:43:17 r, 20.38m,0000000000Hz,0000769392c,0000001.670s, 013.8C,00002191
2016-10-22 00:53:16 r, 20.28m,0000000000Hz,0000706682c,0000001.534s, 013.8C,00002191
2016-10-22 01:03:17 r, 20.26m,0000000000Hz,0000694370c,0000001.507s, 013.5C,00002191
2016-10-22 01:13:17 r, 20.24m,0000000001Hz,0000679456c,0000001.475s, 013.5C,00002191
2016-10-22 01:23:16 r, 20.22m,0000000001Hz,0000667303c,0000001.448s, 013.2C,00002191
2016-10-22 01:33:16 r, 20.18m,0000000001Hz,0000642099c,0000001.393s, 012.8C,00002191
2016-10-22 01:43:17 r, 20.14m,0000000001Hz,0000620174c,0000001.346s, 012.8C,00002191
2016-10-22 01:53:17 r, 20.08m,0000000001Hz,0000588272c,0000001.277s, 012.8C,00002191
2016-10-22 02:03:16 r, 20.06m,0000000001Hz,0000574935c,0000001.248s, 012.8C,00002191
2016-10-22 02:13:17 r, 20.04m,0000000000Hz,0000565389c,0000001.227s, 012.8C,00002191
2016-10-22 02:23:17 r, 20.00m,0000000001Hz,0000543448c,0000001.179s, 012.8C,00002191
2016-10-22 02:33:16 r, 19.89m,0000000001Hz,0000489844c,0000001.063s, 012.8C,00002191
2016-10-22 02:43:16 r, 19.63m,0000000002Hz,0000385577c,0000000.837s, 012.8C,00002191
2016-10-22 02:53:16 r, 19.62m,0000000001Hz,0000383411c,0000000.832s, 012.5C,00002191
2016-10-22 03:03:17 r, 19.60m,0000000001Hz,0000378317c,0000000.821s, 012.5C,00002191
2016-10-22 03:13:17 r, 19.75m,0000000001Hz,0000433852c,0000000.942s, 012.5C,00002191
2016-10-22 03:23:17 r, 19.79m,0000000001Hz,0000448147c,0000000.973s, 012.2C,00002191
2016-10-22 03:33:16 r, 19.76m,0000000001Hz,0000437979c,0000000.950s, 012.2C,00002191
2016-10-22 03:43:17 r, 19.75m,0000000001Hz,0000430717c,0000000.935s, 012.2C,00002191
2016-10-22 03:53:16 r, 19.65m,0000000001Hz,0000395263c,0000000.858s, 012.2C,00002191
2016-10-22 04:03:17 r, 19.38m,0000000001Hz,0000307273c,0000000.667s, 012.2C,00002191
2016-10-22 04:13:17 r, 19.30m,0000000001Hz,0000285971c,0000000.621s, 012.2C,00002191
2016-10-22 04:23:17 r, 19.23m,0000000002Hz,0000268832c,0000000.583s, 012.5C,00002191
2016-10-22 04:33:17 r, 19.23m,0000000002Hz,0000267904c,0000000.581s, 012.5C,00002191
2016-10-22 04:43:17 r, 19.18m,0000000002Hz,0000256313c,0000000.556s, 012.5C,00002191
2016-10-22 04:53:16 r, 19.07m,0000000002Hz,0000230400c,0000000.500s, 012.5C,00002191
2016-10-22 05:03:16 r, 18.91m,0000000002Hz,0000200601c,0000000.435s, 012.2C,00002191
2016-10-22 05:13:16 r, 18.72m,0000000003Hz,0000167304c,0000000.363s, 012.2C,00002191
2016-10-22 05:23:16 r, 18.65m,0000000003Hz,0000157572c,0000000.342s, 012.2C,00002191
2016-10-22 05:33:16 r, 18.58m,0000000004Hz,0000147911c,0000000.321s, 012.5C,00002191
2016-10-22 05:43:16 r, 18.48m,0000000004Hz,0000135244c,0000000.293s, 012.2C,00002191
2016-10-22 05:53:16 r, 18.07m,0000000005Hz,0000092203c,0000000.200s, 012.2C,00002191
2016-10-22 06:03:17 r, 17.87m,0000000005Hz,0000077120c,0000000.167s, 011.9C,00002191
2016-10-22 06:13:17 r, 17.72m,0000000007Hz,0000067197c,0000000.146s, 011.9C,00002191
2016-10-22 06:23:17 r, 17.60m,0000000008Hz,0000060335c,0000000.131s, 011.9C,00002191
2016-10-22 06:33:16 r, 17.53m,0000000008Hz,0000056326c,0000000.122s, 011.6C,00002191
2016-10-22 06:43:16 r, 17.57m,0000000008Hz,0000058590c,0000000.127s, 011.6C,00002191
2016-10-22 06:53:16 r, 17.57m,0000000008Hz,0000058454c,0000000.127s, 011.6C,00002191
2016-10-22 07:03:16 r, 17.16m,0000000011Hz,0000040049c,0000000.087s, 011.6C,00002191
2016-10-22 07:13:16 r, 16.02m,0000000033Hz,0000014038c,0000000.030s, 011.9C,00002191
2016-10-22 07:23:16 r, 14.34m,0000000155Hz,0000000000c,0000000.000s, 011.9C,00002191
2016-10-22 07:33:16 r, 12.20m,0000001119Hz,0000000000c,0000000.000s, 011.6C,00002191
2016-10-22 07:43:16 r, 10.10m,0000007714Hz,0000000000c,0000000.000s, 011.2C,00002191
2016-10-22 07:53:16 r, 08.44m,0000035621Hz,0000000000c,0000000.000s, 010.9C,00002191
2016-10-22 08:03:16 r, 07.33m,0000098568Hz,0000000000c,0000000.000s, 010.9C,00002191
2016-10-22 08:13:16 r, 06.56m,0000201401Hz,0000000000c,0000000.000s, 010.9C,00002191
2016-10-22 08:23:16 r, 06.02m,0000333196Hz,0000000000c,0000000.000s, 011.2C,00002191
2016-10-22 08:33:16 r, 00.00m,0000489659Hz,0000000000c,0000000.000s, 011.6C,00002191
2016-10-22 08:43:16 r, 00.00m,0000597439Hz,0000000000c,0000000.000s, 011.9C,00002191
2016-10-22 08:53:16 r, 00.00m,0000597409Hz,0000000000c,0000000.000s, 012.2C,00002191
2016-10-22 09:03:16 r, 00.00m,0000597322Hz,0000000000c,0000000.000s, 012.8C,00002191
2016-10-22 09:13:17 r, 00.00m,0000597230Hz,0000000000c,0000000.000s, 013.2C,00002191
2016-10-22 09:23:16 r, 00.00m,0000597138Hz,0000000000c,0000000.000s, 014.1C,00002191
2016-10-22 09:33:16 r, 00.00m,0000597115Hz,0000000000c,0000000.000s, 014.5C,00002191
2016-10-22 09:43:17 r, 00.00m,0000596987Hz,0000000000c,0000000.000s, 015.7C,00002191
2016-10-22 09:53:16 r, 00.00m,0000596973Hz,0000000000c,0000000.000s, 016.7C,00002191
2016-10-22 10:03:16 r, 00.00m,0000596800Hz,0000000000c,0000000.000s, 018.3C,00002191
2016-10-22 10:13:16 r, 00.00m,0000596807Hz,0000000000c,0000000.000s, 019.0C,00002191
2016-10-22 10:23:17 r, 00.00m,0000596695Hz,0000000000c,0000000.000s, 019.9C,00002191
2016-10-22 10:33:16 r, 00.00m,0000596568Hz,0000000000c,0000000.000s, 020.6C,00002191
2016-10-22 10:43:17 r, 00.00m,0000596529Hz,0000000000c,0000000.000s, 021.2C,00002191
2016-10-22 10:53:17 r, 00.00m,0000596397Hz,0000000000c,0000000.000s, 021.9C,00002191
2016-10-22 11:03:16 r, 00.00m,0000596372Hz,0000000000c,0000000.000s, 022.2C,00002191
2016-10-22 11:13:16 r, 00.00m,0000596273Hz,0000000000c,0000000.000s, 022.5C,00002191
2016-10-22 11:23:16 r, 00.00m,0000596344Hz,0000000000c,0000000.000s, 023.2C,00002191
2016-10-22 11:33:16 r, 00.00m,0000596237Hz,0000000000c,0000000.000s, 023.2C,00002191
2016-10-22 11:43:16 r, 00.00m,0000596220Hz,0000000000c,0000000.000s, 023.5C,00002191
2016-10-22 11:53:16 r, 00.00m,0000596156Hz,0000000000c,0000000.000s, 024.1C,00002191
2016-10-22 12:03:16 r, 00.00m,0000596061Hz,0000000000c,0000000.000s, 024.4C,00002191
2016-10-22 12:13:17 r, 00.00m,0000595986Hz,0000000000c,0000000.000s, 024.8C,00002191
2016-10-22 12:23:17 r, 00.00m,0000595969Hz,0000000000c,0000000.000s, 026.1C,00002191
2016-10-22 12:33:16 r, 00.00m,0000595777Hz,0000000000c,0000000.000s, 027.7C,00002191
2016-10-22 12:43:16 r, 00.00m,0000595612Hz,0000000000c,0000000.000s, 029.0C,00002191
2016-10-22 12:53:17 r, 00.00m,0000595619Hz,0000000000c,0000000.000s, 029.9C,00002191
2016-10-22 13:03:16 r, 00.00m,0000595494Hz,0000000000c,0000000.000s, 030.6C,00002191
2016-10-22 13:13:17 r, 00.00m,0000595412Hz,0000000000c,0000000.000s, 031.2C,00002191
2016-10-22 13:23:16 r, 00.00m,0000595291Hz,0000000000c,0000000.000s, 031.9C,00002191
2016-10-22 13:33:16 r, 00.00m,0000595200Hz,0000000000c,0000000.000s, 032.2C,00002191
2016-10-22 13:43:17 r, 00.00m,0000595195Hz,0000000000c,0000000.000s, 033.1C,00002191
2016-10-22 13:53:17 r, 00.00m,0000595185Hz,0000000000c,0000000.000s, 033.1C,00002191
2016-10-22 14:03:17 r, 00.00m,0000595368Hz,0000000000c,0000000.000s, 031.2C,00002191
2016-10-22 14:13:17 r, 00.00m,0000595692Hz,0000000000c,0000000.000s, 028.6C,00002191
2016-10-22 14:23:16 r, 00.00m,0000595879Hz,0000000000c,0000000.000s, 027.0C,00002191
2016-10-22 14:33:17 r, 00.00m,0000595975Hz,0000000000c,0000000.000s, 026.1C,00002191
2016-10-22 14:43:16 r, 00.00m,0000595930Hz,0000000000c,0000000.000s, 026.1C,00002191
2016-10-22 14:53:17 r, 00.00m,0000595926Hz,0000000000c,0000000.000s, 026.1C,00002191
2016-10-22 15:03:16 r, 00.00m,0000595920Hz,0000000000c,0000000.000s, 026.1C,00002191
2016-10-22 15:13:17 r, 00.00m,0000595893Hz,0000000000c,0000000.000s, 026.7C,00002191
2016-10-22 15:23:17 r, 00.00m,0000595683Hz,0000000000c,0000000.000s, 027.3C,00002191
2016-10-22 15:33:16 r, 00.00m,0000595902Hz,0000000000c,0000000.000s, 027.3C,00002191
2016-10-22 15:43:17 r, 00.00m,0000595888Hz,0000000000c,0000000.000s, 027.3C,00002191
2016-10-22 15:53:17 r, 00.00m,0000595836Hz,0000000000c,0000000.000s, 027.0C,00002191
2016-10-22 16:03:17 r, 00.00m,0000595973Hz,0000000000c,0000000.000s, 027.0C,00002191
2016-10-22 16:13:17 r, 00.00m,0000595927Hz,0000000000c,0000000.000s, 026.7C,00002191
2016-10-22 16:23:16 r, 00.00m,0000595967Hz,0000000000c,0000000.000s, 026.1C,00002191
2016-10-22 16:33:16 r, 00.00m,0000595967Hz,0000000000c,0000000.000s, 026.1C,00002191
2016-10-22 16:43:17 r, 00.00m,0000595990Hz,0000000000c,0000000.000s, 025.7C,00002191
2016-10-22 16:53:17 r, 00.00m,0000595962Hz,0000000000c,0000000.000s, 025.7C,00002191
2016-10-22 17:03:17 r, 00.00m,0000596104Hz,0000000000c,0000000.000s, 025.1C,00002191
2016-10-22 17:13:17 r, 00.00m,0000596188Hz,0000000000c,0000000.000s, 024.8C,00002191
2016-10-22 17:23:16 r, 00.00m,0000596184Hz,0000000000c,0000000.000s, 024.1C,00002191
2016-10-22 17:33:16 r, 00.00m,0000549615Hz,0000000000c,0000000.000s, 023.5C,00002191
2016-10-22 17:43:17 r, 05.86m,0000381360Hz,0000000000c,0000000.000s, 023.5C,00002191
2016-10-22 17:53:17 r, 06.30m,0000254886Hz,0000000000c,0000000.000s, 023.2C,00002191
2016-10-22 18:03:17 r, 06.81m,0000159749Hz,0000000000c,0000000.000s, 022.8C,00002191
2016-10-22 18:13:16 r, 07.54m,0000081561Hz,0000000000c,0000000.000s, 022.5C,00002191
2016-10-22 18:23:17 r, 08.02m,0000052349Hz,0000000000c,0000000.000s, 022.2C,00002191
2016-10-22 18:33:16 r, 09.31m,0000015922Hz,0000000000c,0000000.000s, 022.2C,00002191
2016-10-22 18:43:16 r, 11.47m,0000002187Hz,0000000000c,0000000.000s, 021.9C,00002191
2016-10-22 18:53:17 r, 13.59m,0000000311Hz,0000000000c,0000000.000s, 021.9C,00002191
2016-10-22 19:03:17 r, 16.07m,0000000032Hz,0000014711c,0000000.032s, 021.9C,00002191
2016-10-22 19:13:16 r, 17.44m,0000000009Hz,0000051364c,0000000.111s, 021.5C,00002191
2016-10-22 19:23:17 r, 18.71m,0000000003Hz,0000167779c,0000000.364s, 021.5C,00002191
2016-10-22 19:33:17 r, 19.04m,0000000002Hz,0000225706c,0000000.490s, 021.5C,00002191
2016-10-22 19:43:17 r, 19.11m,0000000002Hz,0000239799c,0000000.520s, 021.5C,00002191
2016-10-22 19:53:17 r, 19.39m,0000000002Hz,0000313013c,0000000.679s, 021.5C,00002191
2016-10-22 20:03:17 r, 19.55m,0000000002Hz,0000361005c,0000000.783s, 021.5C,00002191
2016-10-22 20:13:16 r, 19.77m,0000000001Hz,0000440533c,0000000.956s, 021.5C,00002191
2016-10-22 20:23:16 r, 19.89m,0000000001Hz,0000493516c,0000001.071s, 021.2C,00002191
2016-10-22 20:33:16 r, 19.88m,0000000001Hz,0000489445c,0000001.062s, 020.9C,00002191
2016-10-22 20:43:17 r, 19.77m,0000000001Hz,0000442602c,0000000.961s, 020.9C,00002191
2016-10-22 20:53:17 r, 19.73m,0000000001Hz,0000426278c,0000000.925s, 020.6C,00002191
2016-10-22 21:03:17 r, 19.75m,0000000001Hz,0000435090c,0000000.944s, 020.6C,00002191
2016-10-22 21:13:17 r, 19.82m,0000000001Hz,0000463663c,0000001.006s, 020.6C,00002191
2016-10-22 21:23:17 r, 19.83m,0000000001Hz,0000470156c,0000001.020s, 020.3C,00002191
2016-10-22 21:33:17 r, 19.84m,0000000001Hz,0000472403c,0000001.025s, 020.3C,00002191
2016-10-22 21:43:17 r, 19.90m,0000000000Hz,0000495013c,0000001.074s, 020.3C,00002191
2016-10-22 21:53:16 r, 19.95m,0000000001Hz,0000520231c,0000001.129s, 019.9C,00002191
2016-10-22 22:03:17 r, 19.97m,0000000001Hz,0000531061c,0000001.152s, 019.9C,00002191
2016-10-22 22:13:17 r, 20.07m,0000000000Hz,0000579668c,0000001.258s, 019.6C,00002191
2016-10-22 22:23:17 r, 19.97m,0000000001Hz,0000529073c,0000001.148s, 019.6C,00002191
2016-10-22 22:33:17 r, 19.96m,0000000001Hz,0000524979c,0000001.139s, 019.6C,00002191
2016-10-22 22:43:16 r, 19.99m,0000000001Hz,0000540256c,0000001.172s, 019.6C,00002191
2016-10-22 22:53:17 r, 19.97m,0000000001Hz,0000531137c,0000001.153s, 019.6C,00002191
2016-10-22 23:03:17 r, 20.10m,0000000000Hz,0000596302c,0000001.294s, 019.6C,00002191
2016-10-22 23:13:17 r, 20.10m,0000000001Hz,0000595276c,0000001.292s, 019.3C,00002191
2016-10-22 23:23:17 r, 20.15m,0000000001Hz,0000622838c,0000001.352s, 019.3C,00002191
2016-10-22 23:33:17 r, 19.80m,0000000001Hz,0000451213c,0000000.979s, 019.3C,00002191
2016-10-22 23:43:17 r, 19.96m,0000000001Hz,0000523362c,0000001.136s, 019.3C,00002191
2016-10-22 23:53:16 r, 20.01m,0000000000Hz,0000552177c,0000001.198s, 019.0C,00002191
